Weather History for Window Rock, AZ

Change the Weather History Date:

Sunday, September 15, 2013

  Actual Average Record
Temperature  
Mean Temperature 58 °F -  
Max Temperature 71 °F 76 °F 90 °F (1952)
Min Temperature 46 °F 44 °F 30 °F (2005)
Degree Days  
Heating Degree Days 7    
Growing Degree Days 8 (Base 50)    
Moisture  
Dew Point 50 °F    
Average Humidity 82    
Maximum Humidity 100    
Minimum Humidity 49    
Precipitation  
Precipitation 0.33 in - - ()
Sea Level Pressure  
Sea Level Pressure 30.01 in    
Wind  
Wind Speed 2 mph (NE)    
Max Wind Speed 10 mph    
Max Gust Speed 17 mph    
Visibility 8 miles    
Events Rain    
Averages and records for this station are not official NWS values.
T = Trace of Precipitation, MM = Missing Value Source: NWS Daily Summary

Daily Weather History Graph

Daily Weather History Graph

Search for Another Location

Airport:

Trip Planner

Search our weather history database for the weather conditions in past years. The results will help you decide how hot, cold, wet, or windy it might be!

Date:

Astronomy

Sep. 15, 2013 Rise Set
Actual Time 6:59 AM MDT 7:22 PM MDT
Civil Twilight 6:33 AM MDT 7:48 PM MDT
Nautical Twilight 6:03 AM MDT 8:18 PM MDT
Astronomical Twilight 5:32 AM MDT 8:48 PM MDT
Moon 4:47 PM MDT (9/15) 2:47 AM MDT (9/15)
Length of Visible Light 13h 14m
Length of Day
12h 23m
Waxing Gibbous, 82% of the Moon is Illuminated
Sep 15
Waxing Gibbous
Sep 19
Full
Sep 26
Last Quarter
Oct 4
New
Oct 11
First Quarter

Hourly Weather History & Observations

Time (MDT) Temp. Dew Point Humidity Pressure Visibility Wind Dir Wind Speed Gust Speed Precip Events Conditions
12:53 AM 55.0 °F 53.1 °F 93% 29.83 in 10.0 mi NNW 3.5 mph - 0.01 in   Partly Cloudy
1:53 AM 54.0 °F 51.1 °F 90% 29.83 in 10.0 mi Calm Calm - N/A   Clear
2:53 AM 52.0 °F 50.0 °F 93% 29.85 in 10.0 mi Calm Calm - N/A   Partly Cloudy
3:53 AM 50.0 °F 48.0 °F 93% 29.87 in 10.0 mi Calm Calm - N/A   Clear
4:53 AM 50.0 °F 48.0 °F 93% 29.87 in 10.0 mi Calm Calm - N/A   Clear
5:27 AM 48.2 °F 48.2 °F 100% 30.17 in 5.0 mi Calm Calm - N/A   Partly Cloudy
5:53 AM 48.9 °F 48.0 °F 97% 29.91 in 8.0 mi Calm Calm - N/A   Clear
6:47 AM 48.2 °F 46.4 °F 93% 30.19 in 1.2 mi Calm Calm - N/A   Clear
7:10 AM 48.2 °F 46.4 °F 93% 30.19 in 1.2 mi Calm Calm - N/A   Partly Cloudy
7:12 AM 48.2 °F 46.4 °F 93% 30.19 in 3.0 mi Calm Calm - N/A   Partly Cloudy
7:18 AM 46.4 °F 46.4 °F 100% 30.20 in 0.8 mi Calm Calm - N/A   Scattered Clouds
7:43 AM 48.2 °F 48.2 °F 100% 30.20 in 2.0 mi Calm Calm - N/A   Partly Cloudy
7:53 AM 50.0 °F 48.9 °F 96% 29.97 in 4.0 mi Calm Calm - N/A   Partly Cloudy
8:18 AM 51.8 °F 51.8 °F 100% 30.21 in 9.0 mi Calm Calm - N/A   Mostly Cloudy
8:53 AM 55.0 °F 51.1 °F 86% 29.97 in 10.0 mi Calm Calm - N/A   Partly Cloudy
9:53 AM 60.1 °F 52.0 °F 75% 29.95 in 10.0 mi Calm Calm - N/A   Clear
10:53 AM 66.0 °F 50.0 °F 56% 29.92 in 10.0 mi Calm Calm - N/A   Clear
11:53 AM 68.0 °F 50.0 °F 52% 29.91 in 10.0 mi Calm Calm - N/A   Clear
12:53 PM 70.0 °F 50.0 °F 49% 29.89 in 10.0 mi Variable 4.6 mph - N/A   Clear
1:24 PM 55.4 °F 46.4 °F 72% 30.22 in 1.5 mi South 6.9 mph 17.3 mph 0.10 in Rain Heavy Rain
1:35 PM 57.2 °F 50.0 °F 77% 30.21 in 3.0 mi East 4.6 mph - 0.22 in Rain Light Rain
1:53 PM 60.1 °F 51.1 °F 72% 29.96 in 10.0 mi NE 5.8 mph - 0.22 in Rain Light Rain
2:53 PM 63.0 °F 55.0 °F 75% 29.94 in 10.0 mi NNW 3.5 mph - 0.02 in   Overcast
3:31 PM 60.8 °F 51.8 °F 72% 30.20 in 2.0 mi North 10.4 mph - 0.05 in Rain Rain
3:40 PM 60.8 °F 53.6 °F 77% 30.19 in 10.0 mi North 4.6 mph - 0.05 in Rain Light Rain
3:53 PM 60.1 °F 55.0 °F 83% 29.95 in 10.0 mi Variable 3.5 mph - 0.05 in Rain Light Rain
4:53 PM 62.1 °F 54.0 °F 75% 29.94 in 10.0 mi NNE 4.6 mph - 0.03 in   Mostly Cloudy
5:53 PM 66.9 °F 50.0 °F 54% 29.92 in 10.0 mi Calm Calm - N/A   Partly Cloudy
6:53 PM 64.9 °F 52.0 °F 63% 29.94 in 10.0 mi Calm Calm - N/A   Clear
7:53 PM 59.0 °F 52.0 °F 78% 29.97 in 10.0 mi SE 3.5 mph - N/A   Clear
8:53 PM 60.1 °F 46.9 °F 62% 29.97 in 10.0 mi ESE 3.5 mph - N/A   Mostly Cloudy
9:53 PM 55.0 °F 50.0 °F 83% 29.98 in 10.0 mi Calm Calm - N/A   Clear
10:53 PM 53.1 °F 48.9 °F 86% 29.97 in 10.0 mi Calm Calm - N/A   Partly Cloudy
11:53 PM 51.1 °F 48.9 °F 92% 29.97 in 10.0 mi Calm Calm - N/A   Clear